Regional Weather Roundup
Issued by NWS Wilmington, NC

Home | Current Version | Previous Version | Text Only | Print | Product List | Glossary On
Versions: 1 2 3 4 5 6 7 8 9 10 11 12 13 14 15 16 17 18 19 20 21 22 23 24 25 26 27 28 29 30 31 32 33 34 35 36 37 38 39 40 41 42 43 44 45 46 47 48 49 50
447
ASUS42 KILM 231113
RWRILM
RWRILM
REGIONAL HOURLY WEATHER ROUNDUP
NATIONAL WEATHER SERVICE WILMINGTON NC
700 AM EDT TUE MAY 23 2017

NOTE: "FAIR" INDICATES FEW OR NO CLOUDS BELOW 12,000 FEET WITH NO
SIGNIFICANT WEATHER AND/OR OBSTRUCTIONS TO VISIBILITY.

...............WFO WILMINGTON COUNTY WARNING AREA...............

......COASTAL NC AND SC COUNTIES......

CITY           SKY/WX    TMP DP  RH WIND       PRES   REMARKS
WILMINGTON     LGT RAIN  71  70  96 S5        29.87S
N MYRTLE BEACH CLOUDY    73  71  93 S8        29.84F
MYRTLE BEACH   MOCLDY    73  70  88 S9        29.85F

......INLAND NC AND SC COUNTIES.......

CITY           SKY/WX    TMP DP  RH WIND       PRES   REMARKS
LUMBERTON      CLOUDY    68  68 100 SW5       29.84S
ELIZABETHTOWN  CLOUDY    67  67 100 SE3       29.85F
WHITEVILLE     CLOUDY    70  69  96 SE7       29.84F
FLORENCE       CLOUDY    69  69 100 SW3       29.86R FOG
DARLINGTON     CLOUDY    69  68  96 S5        29.86R
KINGSTREE      CLOUDY    68  66  94 CALM      29.86R
HARTSVILLE     CLOUDY    68  66  94 CALM      29.85R
BENNETTSVILLE  CLOUDY    70  70 100 S7        29.85R FOG
CONWAY         MOCLDY    70  68  94 CALM      29.85F FOG
GEORGETOWN     CLOUDY    68  68 100 CALM      29.86S
MARION         CLOUDY    68  68 100 S5        29.85R

....................REST OF NORTH CAROLINA......................

.........EASTERN NC.........

CITY           SKY/WX    TMP DP  RH WIND       PRES   REMARKS
CAPE HATTERAS  CLOUDY    73  68  84 SW5       29.90S
JACKSONVILLE   RAIN      70  68  94 SE3       29.88S FOG
MOREHEAD CITY  RAIN      72  71  97 S15       29.89S FOG
KENANSVILLE    HVY RAIN  66  66 100 CALM      29.88F VSB 1/2
NEW BERN       RAIN      69  69 100 S8        29.90S FOG
ELIZABETH CITY CLOUDY    69  69 100 NE10      29.90S

.........CENTRAL NC.........

CITY           SKY/WX    TMP DP  RH WIND       PRES   REMARKS
RALEIGH DURHAM LGT RAIN  68  67  96 E5        29.89S FOG
ROCKY MOUNT    LGT RAIN  68  68 100 CALM      29.89S FOG
ROANOKE RAPIDS NOT AVBL
FAYETTEVILLE   RAIN      68  67  96 VRB3      29.85S FOG
HOFFMAN        HVY RAIN  66  66 100 E3        29.86F

.........WESTERN NC.........

CITY           SKY/WX    TMP DP  RH WIND       PRES   REMARKS
CHARLOTTE      CLOUDY    69  65  86 N6        29.87R
GREENSBORO     LGT RAIN  64  64 100 N7        29.87F
HICKORY        NOT AVBL
BOONE          NOT AVBL
ASHEVILLE      NOT AVBL

.....................REST OF SOUTH CAROLINA.....................

.........EASTERN SC.........

CITY           SKY/WX    TMP DP  RH WIND       PRES   REMARKS
CHARLESTON     CLOUDY    72  70  93 SW6       29.85R
BEAUFORT MCAS  LGT RAIN  73  73 100 SW9       29.86R
HILTON HEAD    NOT AVBL

.........CENTRAL SC.........

CITY           SKY/WX    TMP DP  RH WIND       PRES   REMARKS
COLUMBIA       CLOUDY    71  69  93 CALM      29.84S FOG
ORANGEBURG     CLOUDY    70  69  97 S3        29.86R
SUMTER SHAW    LGT RAIN  70  69  96 S3        29.83S

.........WESTERN SC.........

CITY           SKY/WX    TMP DP  RH WIND       PRES   REMARKS
GREENVILLE     NOT AVBL
ROCK HILL      CLOUDY    67  66  97 CALM      29.87R FOG
ANDERSON       RAIN      66  63  90 CALM      29.86R FOG
CLEMSON        NOT AVBL
GREENWOOD      LGT RAIN  66  64  93 NW3       29.87S


...................COASTAL AND OFFSHORE REPORTS..................

................LOCAL PIERS AND NC RESERVE................


STATION/POSITION TIME  SKY/WX   TEMP    WIND        PRES    VSBY
                                AIR SEA DIR/SP/G
                 (UTC)          (F)     (DEG/KT/KT) (MB)    (MI)
JOHNY MRCER PIER 1048            72 75  160/ 13/ 16 1010.3F
NC RESRV MASNBRO 0945            71     220/  4     1012.0
OCEAN CREST PIER NOT AVBL
SPRINGMAID  PIER 1042                               1010.0F


................COASTAL AND OFFSHORE BUOYS................


STATION/POSITION TIME  SKY/WX   TEMP    WIND        PRES    VSBY
                                AIR SEA DIR/SP/G
                 (UTC)          (F)     (DEG/KT/KT) (MB)    (MI)
DIMNDSHOAL 41025 1050            73 77  170/ 19/ 23 1012.4F
WVE H/P(F/S)=  4/ 5

CAPE LOOKOUT     1100            72     200/ 14/ 18 1012.1R
ONSLOW BAY 41036 NOT AVBL
ONSLOW BAY 41064 1008            72 76  210/ 19/ 23 1012.3R
ONSLOW BAY 41159 1043               76                N/A
WVE H/P(F/S)=  4/ 5

MASNBO INL 41110 1059               75                N/A
WVE H/P(F/S)=  3/ 8

WILM HARBR 41108 1047               76                N/A
WVE H/P(F/S)=  2/ 5

27SE WRITB 41037 1008            71 76  180/ 14/ 19   N/A
FRYING PAN 41013 1050            72 77  210/ 10/ 12 1011.5F
WVE H/P(F/S)=  3/ 5 SWL H/P/D(F/S/D)=  3/200/ 5

SUNST NRSH 41024 1008            72 76  170/ 10/ 14 1011.0F
CAPRS NRSH 41029 1008            78 76  220/ 14/ 17 1010.1F
EDISTO     41004 1050            77 78  230/ 17/ 21 1011.0R
WVE H/P(F/S)=  5/ 6



..........OFFSHORE BUOYS BEYOND 100 NM OFFSHORE...........
.....IN A TRIANGLE---HAT TO BERMUDA TO BAHAMAS TO HAT.....


STATION/POSITION TIME  SKY/WX   TEMP    WIND        PRES    VSBY
                                AIR SEA DIR/SP/G
                 (UTC)          (F)     (DEG/KT/KT) (MB)    (MI)
150E HAT   41001 1100            74 73  210/ 14/ 17 1015.0
W BERMUDA  41048 1100            74 75  220/ 12/ 14 1018.0
ATLANTIC S 41049 1050            74 77   60/  2/  4 1021.7R
WVE H/P(F/S)=  4/14 SWL H/P/D(F/S/D)=  3/ 10/14

E BAHAMAS  41046 1100            78 80  110/ 12/ 14 1019.1
NE BAHAMAS 41047 1100            77 78  150/ 12/ 14 1018.4
120E CANVRL41010 1100            79 79  200/ 14/ 17 1014.4

END




USA.gov is the U.S. government's official web portal to all federal, state and local government web resources and services.